This is the latest recevied weather packets stored in our database for station/object N3MFL. If no packets are shown the sender has not sent any weather packets the latest 10 day(s).
| Time | Temp. | Humidity | Pressure | Rain* | Wind** | Luminosity | Snow |
|---|---|---|---|---|---|---|---|
| 1777860776 | 2.22° C | 77% | 1011.4 hPa | 0 mm | - | 0 W/m² | - |
| 1777860472 | 2.22° C | 76% | 1011.5 hPa | 0 mm | - | 0 W/m² | - |
| 1777860169 | 2.22° C | 74% | 1011.4 hPa | 0 mm | - | 0 W/m² | - |
| 1777859865 | 2.78° C | 73% | 1011.6 hPa | 0 mm | - | 0 W/m² | - |
| 1777859562 | 2.22° C | 72% | 1011.4 hPa | 0 mm | - | 0 W/m² | - |
| 1777859257 | 2.78° C | 71% | 1011.4 hPa | 0 mm | - | 0 W/m² | - |
| 1777858954 | 2.78° C | 70% | 1011.3 hPa | 0 mm | - | 0 W/m² | - |
| 1777858652 | 3.33° C | 69% | 1011.1 hPa | 0 mm | - | 0 W/m² | - |
| 1777858349 | 3.89° C | 68% | 1011.2 hPa | 0 mm | - | 0 W/m² | - |
| 1777858046 | 3.89° C | 67% | 1011.2 hPa | 0 mm | - | 0 W/m² | - |
| 1777857744 | 3.89° C | 67% | 1011 hPa | 0 mm | - | 0 W/m² | - |
| 1777857440 | 4.44° C | 65% | 1011.1 hPa | 0 mm | - | 0 W/m² | - |
| 1777857137 | 4.44° C | 64% | 1010.9 hPa | 0 mm | - | 0 W/m² | - |
| 1777856833 | 4.44° C | 64% | 1010.9 hPa | 0 mm | - | 0 W/m² | - |
| 1777856529 | 5° C | 62% | 1010.7 hPa | 0 mm | - | 0 W/m² | - |
| 1777856226 | 5° C | 63% | 1010.8 hPa | 0 mm | - | 0 W/m² | - |
| 1777855923 | 5.56° C | 61% | 1010.8 hPa | 0 mm | - | 0 W/m² | - |
| 1777855621 | 5.56° C | 59% | 1010.6 hPa | 0 mm | - | 0 W/m² | - |
| 1777855317 | 6.11° C | 57% | 1010.5 hPa | 0 mm | - | 0 W/m² | - |
| 1777855014 | 6.67° C | 55% | 1010.5 hPa | 0 mm | - | 0 W/m² | - |
| 1777854711 | 6.67° C | 51% | 1010.5 hPa | 0 mm | - | 0 W/m² | - |
| 1777854407 | 7.22° C | 52% | 1010.4 hPa | 0 mm | - | 0 W/m² | - |
| 1777854105 | 7.78° C | 48% | 1010.4 hPa | 0 mm | - | 0 W/m² | - |
| 1777853803 | 7.78° C | 50% | 1010.3 hPa | 0 mm | - | 0 W/m² | - |
| 1777853498 | 7.78° C | 49% | 1010.1 hPa | 0 mm | - | 0 W/m² | - |
* Rain latest hour (hover to see other rain measurements)
** Current wind speed in m/s (hover to see current wind gust speed)